Location: Croagnes
(43.9363°N, 5.3265°E)
Time: 17:59:48
(UTC+00:00)

SL-4 R/B - Pass Details

Date: 06 June 2020
Orbit: 428 x 666 km, 51.6° (Epoch: 13 July)

Event Time Altitude Azimuth Distance (km) Brightness Sun altitude
Rises 20:06:51 0° 234° (SW) 2,874 5.8 -7.7°
Reaches altitude 10° 20:09:06 10° 234° (SW) 2,001 5.0 -8.0°
Maximum altitude 20:13:44 83° 147° (SSE) 660 2.3 -8.6°
Drops below altitude 10° 20:18:35 10° 60° (ENE) 2,087 4.8 -9.2°
Sets 20:20:58 0° 59° (ENE) 3,007 5.6 -9.5°
